sat.trackr.live / text

‹ back to catalog

STARLINK-35002

NORAD 65291 · 2025-184U

PAYLOAD ACTIVE UNKNOWN

§ Identity

Operator
Country
US
Launch date
2025-08-22
Launch site
AFWTR
Launch vehicle
Mass (kg)
RCS (m²)

Purposes: comms

External: N2YO · Heavens-Above · Gunter

§ Orbital elements

Epoch: 2026-09-20T14:03:33.594336Z

Period
93.91 min
Inclination
97.2837°
Eccentricity
0.0000767
Mean motion
15.33450862 rev/d
Perigee alt
465.0 km
Apogee alt
466.1 km
Semi-major
6,843.7 km
B*
2.4223e-4
RAAN
311.4912°
Arg perigee
87.9310°
Mean anomaly
272.2020°
Rev number
6,073

§ Raw data

STARLINK-350021 65291U 25184U   26263.58580549  .00007755  00000+0  24223-3 0  99952 65291  97.2837 311.4912 0000767  87.9310 272.2020 15.33450862 60738

JSON: /api/v1/satellites/65291 · /tle

For live sub-satellite position, see the globe view (requires WebGL).

§ Visibility from observer

Set your observer location to see the next 7 days of passes ≥ 10°. The values pass through the URL so the page stays shareable.

No JS? Fill the form by hand. The geolocation button needs JavaScript.